Location: B?dimalle
(17.1788°N, 80.5377°E)
Time: 05:47:56
(UTC+00:00)

Vanguard 1 - Pass Details

Date: 17 February 2026
Orbit: 653 x 3818 km, 34.2° (Epoch: 14 March)

Event Time Altitude Azimuth Distance (km) Brightness Sun altitude
Rises 12:56:07 0° 294° (WNW) 5,776 15.0 -4.5°
Reaches altitude 10° 12:59:38 10° 301° (WNW) 5,141 14.5 -5.3°
Maximum altitude 13:15:46 48° 13° (NNE) 4,103 13.0 -9.1°
Enters shadow 13:35:16 15° 80° (E) 6,441 13.5 -13.7°
